Terminal Aerodrome Forecast
Issued by NWS Lake Charles, LA

Home | Current Version | Previous Version | Text Only | Print | Product List | Glossary On
Versions: 1 2 3 4 5 6 7 8 9 10 11 12 13
000
FTUS44 KLCH 261100
TAFBPT
TAF
KBPT 261122Z 2612/2712 22005KT P6SM SKC
     FM261400 23009KT P6SM SKC
     FM261800 26014G20KT P6SM SKC
     FM270000 30005KT P6SM SKC=

USA.gov is the U.S. government's official web portal to all federal, state and local government web resources and services.